Location: Deneb Observatory
(47.2267°N, 100.4953°W)
Time: 20:35:47
(UTC-05:00)

Iridium 66 - Visible Passes

Search period start: 24 April 2015 00:00
Search period end: 04 May 2015 00:00
Orbit: 776 x 779 km, 86.4° (Epoch: 24 April)

Date Brightness Start Highest point End Pass type
(mag) Time Alt. Az. Time Alt. Az. Time Alt. Az.
24 Apr 6.5 00:06:59 47° ENE 00:06:59 47° ENE 00:11:31 10° NNE visible
24 Apr 7.7 01:47:26 24° WNW 01:47:33 24° WNW 01:51:40 10° NNW visible
24 Apr 7.1 23:33:21 28° ENE 23:33:21 28° ENE 23:37:35 10° NNE visible
25 Apr 6.9 01:13:48 39° WNW 01:13:48 39° WNW 01:18:38 10° N visible
25 Apr 7.7 22:59:42 17° E 22:59:51 17° ENE 23:03:13 10° NE visible
26 Apr 6.1 00:40:09 69° WNW 00:40:09 69° WNW 00:45:18 10° N visible
27 Apr 6.0 00:06:29 69° E 00:06:32 69° E 00:11:45 10° N visible
27 Apr 8.1 01:46:56 17° W 01:47:55 17° WNW 01:51:14 10° NNW visible
27 Apr 6.6 23:32:49 39° E 23:33:06 39° E 23:37:58 10° NNE visible
28 Apr 7.4 01:13:16 28° W 01:14:00 29° WNW 01:18:29 10° NNW visible
28 Apr 7.3 22:59:08 23° E 22:59:47 23° E 23:03:54 10° NNE visible
29 Apr 6.6 00:39:35 46° WSW 00:40:14 49° W 00:45:18 10° N visible
29 Apr 7.9 22:25:26 13° E 22:26:33 14° ENE 22:29:10 10° NE visible
30 Apr 5.9 00:05:53 67° SSW 00:06:37 85° W 00:11:53 10° N visible
30 Apr 8.4 01:46:20 11° W 01:48:20 12° WNW 01:50:23 10° NW visible
30 Apr 6.2 23:32:10 48° SE 23:33:07 55° E 23:38:14 10° NNE visible
01 May 7.9 01:12:37 19° W 01:14:18 21° WNW 01:18:11 10° NNW visible
01 May 6.9 22:58:27 28° ESE 22:59:44 32° E 23:04:21 10° NNE visible
02 May 7.2 00:38:54 29° WSW 00:40:26 35° WNW 00:45:13 10° NNW visible
02 May 7.6 22:24:43 16° ESE 22:26:27 19° ENE 22:30:06 10° NE visible
03 May 6.3 00:05:09 42° SW 00:06:45 61° W 00:11:56 10° N visible
03 May 8.1 21:52:17 10° E 21:53:15 11° ENE 21:54:32 10° ENE visible
03 May 5.9 23:31:24 42° SSE 23:33:10 77° E 23:38:25 10° N visible
